Flag for Cuba Weather past 2 weeks in Holguín, Cuba

Now
93 °F

Scattered clouds.


Feels Like: 93 °F
Forecast: 72 / 92 °F
Wind: 6 mph from North

Location: Holguin Civ / Mil

Current Time: Apr 19, 2015 at 3:40:28 PM

Latest Report: Apr 19, 2015 at 2:50 PM


Visibility: N/A

Pressure: 29.89 "Hg

Humidity: 32%

Dew point: 59 °F

Location of HolguínLocation

Historic Weather in Holguín — Graph

°F

Holguín temperature yesterday

Maximum temperature yesterday: 95 °F (at 4:50 PM)
Minimum temperature yesterday: 72 °F (at 3:51 AM)
Average temperature yesterday: 81 °F

Past Weeks' High & Low Weather Summary

 TemperatureHumidityPressure
High95 °F (Apr 18, 4:50 PM)94% (Apr 5, 4:51 AM)30.09 "Hg (Apr 5, 4:51 AM)
Low66 °F (Apr 5, 4:51 AM)27% (Apr 15, 12:50 PM)29.86 "Hg (Apr 18, 4:50 PM)
Average80 °F62%30.01 "Hg
* Reported Apr 4 1:50 PM — Apr 19 1:50 PM, Holguín, Weather by CustomWeather, © 2015

Note: Actual official high and low records may vary slightly from our data, if they occured in-between our weather recording intervals... More about our weather records

Advertising

Holguín weather history for previous 24 hours

 ConditionsComfort  
Time TempWeatherWind HumidityBarometerVisibility
1:50 PM
Sun, Apr 19
93 °FScattered clouds.8 mph32%29.92 "HgN/A
12:50 PM91 °FScattered clouds.8 mph36%29.98 "HgN/A
11:55 AM90 °FScattered clouds.7 mph38%29.98 "HgN/A
10:50 AM86 °FScattered clouds.3 mph52%30.01 "HgN/A
9:50 AM82 °FPassing clouds.5 mph62%30.01 "HgN/A
8:56 AM79 °FPassing clouds.5 mph70%30.01 "Hg6 mi
7:50 AM73 °FPassing clouds.6 mph89%29.98 "Hg6 mi
6:52 AM72 °FFog.3 mph88%29.98 "Hg5 mi
5:55 AM73 °FFog.6 mph83%29.95 "Hg5 mi
4:50 AM72 °FClear.3 mph88%29.95 "Hg10 mi
3:50 AM73 °FClear.6 mph83%29.95 "Hg10 mi
2:50 AM72 °FClear.2 mph78%29.95 "Hg10 mi
1:50 AM73 °FClear.1 mph74%29.98 "Hg10 mi
12:52 AM77 °FClear.5 mph65%29.98 "Hg10 mi
11:50 PM
Sat, Apr 18
77 °FClear.6 mph61%30.01 "Hg10 mi
10:52 PM79 °FPassing clouds.7 mph58%30.01 "HgN/A
9:51 PM81 °FPassing clouds.3 mph54%30.01 "HgN/A
8:50 PM81 °FPassing clouds.7 mph62%29.95 "HgN/A
7:50 PM81 °FPassing clouds.9 mph62%29.92 "HgN/A
6:51 PM86 °FScattered clouds.12 mph49%29.92 "Hg6 mi
5:51 PM90 °FScattered showers. Scattered clouds.12 mph41%29.86 "Hg5 mi
4:50 PM95 °FScattered clouds.8 mph32%29.86 "Hg6 mi
3:50 PM93 °FScattered clouds.1 mph28%29.89 "Hg6 mi
Weather by CustomWeather, © 2015

See weather overviewHow to use our weather pages